EDT,Max TemperatureF,Mean TemperatureF,Min TemperatureF,Max Dew PointF,MeanDew PointF,Min DewpointF,Max Humidity, Mean Humidity, Min Humidity, Max Sea Level PressureIn, Mean Sea Level PressureIn, Min Sea Level PressureIn, Max VisibilityMiles, Mean VisibilityMiles, Min VisibilityMiles, Max Wind SpeedMPH, Mean Wind SpeedMPH, Max Gust SpeedMPH,PrecipitationIn, CloudCover, Events, WindDirDegrees
2013-5-1,79,66,53,57,53,49,90,68,45,30.25,30.19,30.09,10,10,10,13,6,18,0.00,0,,141
2013-5-2,77,64,53,52,48,38,80,57,42,30.27,30.22,30.16,10,10,10,18,7,,0.00,0,,125
2013-5-3,73,64,55,53,43,36,60,48,26,30.15,30.12,30.09,10,10,10,16,8,23,0.00,1,,113
2013-5-4,68,61,54,45,41,38,72,50,35,30.15,30.12,30.09,10,10,10,15,9,22,0.00,0,,109
2013-5-5,70,60,50,46,41,35,83,50,28,30.13,30.09,30.03,10,10,10,17,9,22,0.00,0,,96
2013-5-6,71,60,48,50,42,38,80,53,37,30.09,30.04,30.00,10,10,10,14,6,,0.00,0,,90
2013-5-7,73,62,52,54,47,38,74,57,39,30.08,30.04,30.00,10,10,10,15,5,20,0.00,0,,87
2013-5-8,77,66,57,54,48,36,72,54,40,30.02,29.98,29.94,10,10,10,12,3,,0.01,3,Rain,48
2013-5-9,78,66,55,54,47,35,87,51,27,29.98,29.94,29.91,10,10,10,12,3,18,0.00,1,,160
2013-5-10,73,58,44,61,54,38,94,79,45,29.91,29.80,29.74,10,8,2,21,8,25,0.23,8,Rain,228
2013-5-11,59,50,41,45,40,32,87,74,59,29.91,29.85,29.74,10,10,10,21,8,32,0.01,7,,292
2013-5-12,50,42,37,33,28,22,79,57,41,30.10,29.96,29.88,10,10,10,21,12,31,0.00,5,,285
2013-5-13,55,44,33,33,24,20,70,48,27,30.19,30.14,30.10,10,10,10,13,6,18,0.00,1,,309
2013-5-14,70,56,44,47,40,33,72,57,39,30.13,29.93,29.74,10,10,10,14,8,23,0.00,4,,151
2013-5-15,84,68,55,59,49,41,87,48,25,29.78,29.69,29.59,10,10,10,20,8,36,0.00,1,Rain,280
2013-5-16,82,68,54,50,43,36,67,43,25,30.03,29.88,29.78,10,10,10,12,6,18,0.00,0,,353
2013-5-17,70,58,48,45,42,38,80,58,39,30.18,30.13,30.05,10,10,10,13,8,,0.00,1,,66
2013-5-18,77,66,55,48,45,43,67,51,31,30.17,30.11,30.06,10,10,10,16,8,20,0.00,2,,85
2013-5-19,84,70,57,64,57,46,78,62,40,30.06,29.98,29.90,10,10,10,12,5,,0.00,0,,147
2013-5-20,88,75,62,70,64,59,94,67,44,29.95,29.88,29.78,10,10,8,16,5,26,0.00,0,,181
2013-5-21,86,78,71,68,63,57,84,61,40,29.82,29.77,29.71,10,10,9,17,9,29,0.05,2,Rain,219
2013-5-22,84,74,66,66,62,58,93,71,44,29.76,29.70,29.62,10,10,9,32,9,50,0.02,4,Rain,217
2013-5-23,66,53,42,60,49,35,93,85,71,30.14,29.88,29.69,10,9,3,20,10,33,0.11,7,Rain,336
2013-5-24,55,47,39,36,33,30,81,62,40,30.37,30.29,30.16,10,10,10,16,9,23,0.00,3,,3
2013-5-25,66,52,37,38,33,30,83,53,32,30.41,30.35,30.30,10,10,10,14,4,18,0.00,0,,20
2013-5-26,69,54,39,37,33,29,79,46,25,30.35,30.31,30.26,10,10,10,13,3,17,0.00,0,,57
2013-5-27,64,53,43,51,42,29,100,71,32,30.29,30.18,30.06,10,9,3,12,4,,0.67,4,Rain,125
2013-5-28,78,63,51,72,60,50,100,95,79,30.05,29.93,29.83,10,5,1,15,6,23,1.03,8,Rain,96
2013-5-29,86,76,68,65,62,59,78,63,41,30.01,29.92,29.79,10,10,10,17,10,25,0.00,3,,239
2013-5-30,88,78,68,70,66,61,94,77,53,30.07,30.03,29.99,10,8,1,28,7,39,0.50,3,Rain,189
2013-5-31,84,76,69,70,66,63,100,78,60,30.00,29.94,29.88,10,10,4,21,8,32,0.17,3,Rain,200